Regional Weather Roundup
Issued by NWS

Home | Current Version | Previous Version | Text Only | Print | Product List | Glossary On
Versions: 1 2 3 4 5 6 7 8 9 10 11 12 13 14 15 16 17 18 19 20 21 22 23 24 25 26 27
000
ASUS45 KBOU 180610
RWRCO

WEATHER ROUNDUP FOR COLORADO
NATIONAL WEATHER SERVICE DENVER/BOULDER CO
1100 PM MST FRI NOV 17 2017

NOTE: "FAIR" INDICATES FEW OR NO CLOUDS BELOW 12000 FEET WITH NO
SIGNIFICANT WEATHER AND/OR OBSTRUCTIONS TO VISIBILITY.

COZ001>005-013-030-031-180700-
...NORTHWEST COLORADO...

CITY           SKY/WX    TMP DP  RH WIND       PRES   REMARKS
CRAIG          FAIR      24  17  74 SW15      30.14R WCI  11
HAYDEN         CLOUDY    24  19  81 W18       30.13R WCI  10
MEEKER         FAIR      26  16  65 MISG      30.15R
RABBIT EARS PA CLOUDY    12  10  92 MISG      29.94R
STEAMBOAT SPGS CLOUDY    25  19  80 W15G23    30.08R WCI  12
WALDEN         FAIR      19  14  79 W15       30.00S WCI   5
$$

COZ006>008-011-180700-
...WEST CENTRAL VALLEYS...

CITY           SKY/WX    TMP DP  RH WIND       PRES   REMARKS
GRAND JUNCTION FAIR      34  23  64 NW15      30.16R WCI  24
MONTROSE       CLOUDY    35  29  78 CALM      30.16R
EAGLE          CLOUDY    28  26  92 NW3       30.12R
RIFLE          MIX PCPN  32  24  72 NW16G24   30.17R WCI  21
DELTA          FAIR      38  28  65 W13       30.14R
NUCLA          MOCLDY    36  23  60 N22G28    30.18R
$$

COZ017>023-064>068-180700-
...SOUTHWEST COLORADO...

CITY           SKY/WX    TMP DP  RH WIND       PRES   REMARKS
DURANGO        FLURRIES  35  50 100 NW21G30   30.01R WCI  24
CORTEZ         CLOUDY    35  23  61 N18G26    30.13R WCI  24
PAGOSA SPRINGS LGT RAIN  41  35  79 W14G24    29.94R
TELLURIDE        N/A     24  19  84 S3        30.13S
WOLF CREEK PAS CLOUDY    21  21 100 NW12G20   30.01R WCI   9
$$

COZ009-010-012-014-032>034-037-058>063-180700-
...CENTRAL COLORADO...

CITY           SKY/WX    TMP DP  RH WIND       PRES   REMARKS
ASPEN          LGT SNOW  25  19  78 W8G23     30.07R WCI  16
BUENA VISTA    CLOUDY    28  21  76 NW20G26   29.93R WCI  15
COPPER MTN     CLOUDY    14   9  79 MISG      29.92F
BERTHOUD PASS  HVY SNOW   5  -6  61 MISG      29.80S VSB<1/4
COTTONWOOD PAS LGT SNOW  30  23  74 W12G23    29.93R WCI  21
GUNNISON       LGT SNOW  28  27  96 SW5       30.02R FOG     WCI  23
KREMMLING      LGT SNOW  30  21  69 NW13G18   30.06R WCI  20
LEADVILLE      SNOW      15  11  83 N23G35    29.92F VSB 1/2 WCI  -3
MONARCH PASS   CLOUDY    18  16  93 MISG      30.01F
SALIDA         CLOUDY    32  27  81 CALM      30.01R
SUNLIGHT       CLOUDY    12   9  85 MISG      30.09R
WILKERSON PASS CLOUDY    18  10  73 NW13      29.89R WCI   4
$$

COZ069>075-180700-
...SAN LUIS VALLEY/SANGRE DE CRISTO MOUNTAINS...

CITY           SKY/WX    TMP DP  RH WIND       PRES   REMARKS
ALAMOSA        LGT SNOW  33  32  96 NW26G36   29.91R FOG     WCI  20
DEL NORTE      CLOUDY    36  20  54 W17G31    29.91R
LA VETA PASS   LGT SNOW  32  30  93 S26G40      N/A  WCI  18
SAGUACHE       MOCLDY    32  28  86 NW25G33   29.92R WCI  19
$$

COZ035-036-038>040-180700-
...NORTHERN COLORADO FRONT RANGE...

CITY           SKY/WX    TMP DP  RH WIND       PRES   REMARKS
DENVER INTL AP CLOUDY    39  34  82 W9        29.86R
DMNS CITY PARK   N/A     40  16  37 N13G24    29.89R
AURORA         MOCLDY    35  28  73 NW14G24   29.87S WCI  26
FRONT RANGE AP CLOUDY    38  36  93 SW6       29.87R
ERIE MUNI ARPT FAIR      39  22  50 N3        29.91R
BOULDER MUN AP FAIR      37  19  48 N8G17     29.84R
CENTENNIAL     CLOUDY    34  33  96 CALM      29.86S
BROOMFIELD     FAIR      37  19  48 NW21G36   29.85S
FORT COLLINS   FAIR      40  18  41 NW21G33   29.89R
LONGMONT       FAIR      41  21  45 NW12      29.87R
$$

COZ041-046-047-076>085-087-088-180700-
...PIKES PEAK/PALMER DIVIDE AND SOUTHERN FOOTHILLS...

CITY           SKY/WX    TMP DP  RH WIND       PRES   REMARKS
COLO. SPRINGS  FLURRIES  36  31  82 N22G31    29.83R
A. F. ACADEMY  LGT SNOW  33  33  99 N13       29.83R FOG     WCI  23
SCHRIEVER AFB  FLURRIES  34  31  88 N21       29.83R WCI  22
CHEYENNE MTN   SNOWSHWR  32  31  99 NW12G24   29.75R WCI  23
ELLICOTT       NOT AVBL
FALCON         FLURRIES  32  29  89 N21G31    29.82F WCI  20
FORT CARSON    FLURRIES  35  33  93 N17G25    29.82R WCI  25
LIMON          CLOUDY    36  32  85 NW23G32   29.84R
MONUMENT HILL  FLURRIES  30  27  86 N20       29.86F WCI  18
CANON CITY     CLOUDY    39  32  75 W18G25    29.85R
WALSENBURG     CLOUDY    41  37  87 NE23G29   29.85R
TRINIDAD       FAIR      52  28  39 NW12G17   29.76R
$$

COZ042>045-048>051-090-091-180700-
...NORTHEAST COLORADO...

CITY           SKY/WX    TMP DP  RH WIND       PRES   REMARKS
GREELEY ARPT   FAIR      41  21  44 N9        29.89R
AKRON          CLOUDY    38  33  82 N23G29    29.86R
BURLINGTON     LGT RAIN  39  38  96 N15       29.80R
WRAY           NOT AVBL
YUMA           CLOUDY    41  34  75 NW22G30   29.82R
STERLING       MOCLDY    37  34  87 N22       29.86R
HOLYOKE        FAIR      45  36  70 NW20G25   29.79R
FORT MORGAN    CLOUDY    37  29  74 N17       29.89R
$$

COZ086-089-092>099-180700-
...SOUTHEAST COLORADO...

CITY           SKY/WX    TMP DP  RH WIND       PRES   REMARKS
PUEBLO         LGT RAIN  39  36  89 N17G26    29.86R
LA JUNTA       CLOUDY    46  34  62 N36G47    29.79R
LAMAR          FAIR      44  31  60 N14G22    29.76R
SPRINGFIELD      N/A     43  30  60 N21       29.74R
$$




USA.gov is the U.S. government's official web portal to all federal, state and local government web resources and services.